Location: Nashville
(36.1660°N, 86.7840°W)
Time: 06:56:27
(UTC-05:00)

EO-88 - Pass Details

Date: 19 May 2022
Orbit: 457 x 464 km, 97.3° (Epoch: 27 June)

Event Time Altitude Azimuth Distance (km) Brightness Sun altitude
Exits shadow 22:20:40 43° 353° (N) 660 ? -24.5°
Drops below altitude 10° 22:23:06 10° 350° (N) 1,618 ? -24.8°
Sets 22:25:10 0° 350° (N) 2,500 ? -25.0°
